Regional Weather Roundup
Issued by NWS

Home | Current Version | Previous Version | Text Only | Print | Product List | Glossary Off
Versions: 1 2 3 4 5 6 7 8 9 10 11 12 13 14 15 16 17 18 19 20 21 22 23 24 25 26 27 28 29 30 31 32 33 34 35 36 37 38 39 40 41 42 43 44 45 46 47 48 49 50

000
ASUS43 KLSX 231107
RWRMO

WEATHER SUMMARY FOR MISSOURI
NATIONAL WEATHER SERVICE SPRINGFIELD MO
600 AM CDT SUN APR 23 2017

NOTE: "FAIR" INDICATES FEW OR NO CLOUDS BELOW 12,000 FEET WITH NO
       SIGNIFICANT WEATHER AND/OR OBSTRUCTIONS TO VISIBILITY.
       CURRENT SKY AND/OR WEATHER CONDITIONS ARE NOT AVAILABLE FOR
       CHILLICOTHE AND FARMINGTON.

MOZ001>031-035>038-043-044-053-054-231200-
...NORTHERN AND WESTERN MISSOURI...

CITY           SKY/WX    TMP DP  RH WIND       PRES   REMARKS
KANSAS CTY INT CLEAR     44  30  57 N3        30.16S
KANSAS C DTWN  CLEAR     43  37  79 NW3       30.16S
LEE`S SUMMIT   CLEAR     42  33  70 CALM      30.16S
ST JOSEPH      CLEAR     34  33  96 CALM      30.18S
CHILLICOTHE      N/A     35  33  92 CALM      30.18R
KIRKSVILLE     CLEAR     33  32  96 N5        30.16S WCI  29

$$
MOZ066>068-077>081-088>096-101>105-231200-
...SOUTHWEST MISSOURI...

CITY           SKY/WX    TMP DP  RH WIND       PRES   REMARKS
SPRINGFIELD    CLEAR     40  36  86 N6        30.10R
JOPLIN         CLEAR     41  39  93 N3        30.14R
BRANSON        CLEAR     41  39  93 CALM      30.10R

$$
MOZ032>034-039>042-045>050-055>058-069>072-231200-
...CENTRAL MISSOURI...

CITY           SKY/WX    TMP DP  RH WIND       PRES   REMARKS
COLUMBIA       CLEAR     40  33  76 N7        30.13R
JEFFERSON CITY CLEAR     41  33  73 NW5       30.13R
ROLLA          CLEAR     40  32  73 N3        30.07S
WHITEMAN AFB   CLEAR     40  37  88 CALM      30.14R
OSAGE BEACH    CLEAR     40  35  83 N3        30.13R

$$
MOZ051-052-059>065-231200-
...EAST CENTRAL MISSOURI...

CITY           SKY/WX    TMP DP  RH WIND       PRES   REMARKS
ST LOUIS INTL  NOT AVBL
SPIRIT OF STL  CLEAR     36  34  92 CALM      30.09R
ST CHARLES     CLEAR     46  30  53 N12       30.09S

$$
MOZ072>076-082>087-097>100-106>115-231200-
...SOUTH CENTRAL AND SOUTHEAST MISSOURI...

CITY           SKY/WX    TMP DP  RH WIND       PRES   REMARKS
CAPE GIRARDEAU CLOUDY    48  37  65 N15       29.98R
FARMINGTON     CLEAR     42  35  76 N7        30.04S
POPLAR BLUFF   CLOUDY    48  42  80 N10       29.98R
WEST PLAINS    CLEAR     44  35  70 N10       30.05R

$$



USA.gov is the U.S. government's official web portal to all federal, state and local government web resources and services.